Location: Franzen
(48.6167°N, 15.3833°E)
Time: 06:53:10
(UTC+00:00)

FALCON 9 DEB - Pass Details

Date: 06 August 2021
Orbit: 419 x 432 km, 53.0° (Epoch: 27 September)

Event Time Altitude Azimuth Distance (km) Brightness Sun altitude
Exits shadow 01:01:35 30° 126° (SE) 790 4.3 -19.7°
Drops below altitude 10° 01:04:16 10° 78° (ENE) 1,535 6.5 -19.5°
Sets 01:06:31 0° 68° (ENE) 2,409 7.8 -19.3°
